Terminal Aerodrome Forecast
Issued by NWS

Home | Current Version | Previous Version | Graphics & Text | Print | Product List | Glossary On
Versions: 1 2 3 4 5 6 7 8 9 10 11 12 13 14 15 16 17 18 19 20 21 22 23 24 25 26 27 28
000
FTUS43 KLSX 281326 AAA
TAFSUS
TAF AMD
KSUS 281326Z 2813/2912 13009KT P6SM -RA OVC080
     FM281900 13011KT P6SM BKN035
     FM282100 14008KT P6SM VCTS OVC025CB
     FM290000 17004KT P6SM OVC025
     FM290600 VRB03KT 4SM -SHRA VCTS OVC010CB
     FM291000 13009KT 3SM RA OVC009=

USA.gov is the U.S. government's official web portal to all federal, state and local government web resources and services.